�������l�o���
Date,Time,MP-1(��Sv/h),MP-2(��Sv/h),MP-3(��Sv/h),MP-4(��Sv/h),MP-5(��Sv/h),MP-6(��Sv/h),MP-7(��Sv/h),MP-8(��Sv/h),����,����(m/s),���J
2020/12/11,00:00,0.671,0.958,0.611,1.216,0.852,0.384,0.675,0.635,���k��,5.4,��
2020/12/11,00:10,0.669,0.959,0.612,1.216,0.854,0.384,0.676,0.634,��,5.0,��
2020/12/11,00:20,0.670,0.962,0.612,1.215,0.853,0.383,0.673,0.633,��,4.8,��
2020/12/11,00:30,0.669,0.960,0.611,1.213,0.852,0.384,0.675,0.635,��,4.0,��
2020/12/11,00:40,0.669,0.963,0.610,1.213,0.853,0.382,0.675,0.636,���k��,3.3,��
2020/12/11,00:50,0.670,0.960,0.611,1.216,0.851,0.382,0.674,0.636,��,2.9,��
2020/12/11,01:00,0.670,0.962,0.612,1.212,0.854,0.383,0.673,0.635,���쐼,3.0,��
2020/12/11,01:10,0.670,0.961,0.611,1.214,0.853,0.384,0.676,0.635,���쐼,3.7,��
2020/12/11,01:20,0.670,0.961,0.611,1.214,0.855,0.385,0.674,0.634,��,4.3,��
2020/12/11,01:30,0.669,0.961,0.611,1.216,0.853,0.383,0.675,0.634,��,4.2,��
2020/12/11,01:40,0.671,0.962,0.611,1.214,0.854,0.384,0.673,0.634,��,3.5,��
2020/12/11,01:50,0.672,0.960,0.609,1.215,0.851,0.383,0.675,0.636,���k��,3.1,��
2020/12/11,02:00,0.670,0.959,0.609,1.214,0.851,0.381,0.674,0.635,���k��,2.2,��
2020/12/11,02:10,0.671,0.960,0.610,1.214,0.853,0.382,0.675,0.635,�k��,2.0,��
2020/12/11,02:20,0.669,0.960,0.610,1.213,0.854,0.384,0.675,0.635,�k��,2.6,��
2020/12/11,02:30,0.671,0.961,0.611,1.212,0.853,0.383,0.674,0.635,�k��,2.0,��
2020/12/11,02:40,0.671,0.961,0.610,1.214,0.854,0.383,0.674,0.634,�k��,2.5,��
2020/12/11,02:50,0.671,0.960,0.611,1.214,0.851,0.383,0.674,0.635,�k��,2.3,��
2020/12/11,03:00,0.671,0.961,0.611,1.215,0.852,0.384,0.676,0.635,���k��,2.5,��
2020/12/11,03:10,0.671,0.961,0.610,1.217,0.852,0.382,0.675,0.635,���k��,1.7,��
2020/12/11,03:20,0.670,0.961,0.609,1.212,0.852,0.383,0.674,0.635,���k��,1.5,��
2020/12/11,03:30,0.668,0.957,0.611,1.212,0.853,0.383,0.674,0.635,���k��,1.9,��
2020/12/11,03:40,0.670,0.958,0.611,1.216,0.854,0.384,0.673,0.636,���k��,2.2,��
2020/12/11,03:50,0.670,0.957,0.610,1.215,0.852,0.383,0.674,0.634,���k��,2.3,��
2020/12/11,04:00,0.669,0.959,0.612,1.216,0.852,0.384,0.675,0.635,���k��,2.5,��
2020/12/11,04:10,0.669,0.958,0.610,1.214,0.851,0.382,0.673,0.635,���k��,2.6,��
2020/12/11,04:20,0.668,0.959,0.611,1.212,0.852,0.383,0.674,0.634,���k��,3.1,��
2020/12/11,04:30,0.667,0.959,0.611,1.214,0.851,0.384,0.675,0.637,���k��,3.4,��
2020/12/11,04:40,0.670,0.959,0.610,1.213,0.851,0.383,0.674,0.635,�k��,3.5,��
2020/12/11,04:50,0.668,0.958,0.611,1.215,0.853,0.383,0.675,0.636,���k��,4.5,��
2020/12/11,05:00,0.670,0.960,0.611,1.214,0.852,0.384,0.674,0.634,�k��,2.9,��
2020/12/11,05:10,0.671,0.958,0.610,1.213,0.853,0.384,0.673,0.635,�k�k��,1.4,��
2020/12/11,05:20,0.669,0.960,0.610,1.212,0.854,0.383,0.674,0.634,�k�k��,1.9,��
2020/12/11,05:30,0.668,0.960,0.610,1.215,0.853,0.384,0.674,0.634,�k��,2.0,��
2020/12/11,05:40,0.668,0.961,0.610,1.214,0.852,0.382,0.675,0.635,�k��,1.7,��
2020/12/11,05:50,0.670,0.960,0.609,1.213,0.853,0.383,0.674,0.635,���k��,2.0,��
2020/12/11,06:00,0.669,0.960,0.611,1.211,0.851,0.383,0.672,0.635,��,1.2,��
2020/12/11,06:10,0.670,0.960,0.611,1.213,0.852,0.382,0.673,0.636,���쐼,1.5,��
2020/12/11,06:20,0.668,0.958,0.612,1.215,0.849,0.382,0.674,0.636,���k��,1.4,��
2020/12/11,06:30,0.670,0.959,0.609,1.214,0.850,0.383,0.676,0.635,�k��,1.7,��
2020/12/11,06:40,0.670,0.957,0.611,1.212,0.851,0.384,0.674,0.633,�k��,2.5,��
2020/12/11,06:50,0.668,0.958,0.610,1.215,0.852,0.383,0.673,0.634,���k��,3.0,��
2020/12/11,07:00,0.669,0.958,0.611,1.215,0.851,0.383,0.674,0.636,��,2.3,��
2020/12/11,07:10,0.668,0.957,0.608,1.212,0.850,0.384,0.673,0.637,���k��,2.6,��
2020/12/11,07:20,0.668,0.958,0.610,1.214,0.850,0.382,0.674,0.635,���k��,5.0,��
2020/12/11,07:30,0.670,0.960,0.610,1.213,0.851,0.382,0.676,0.634,���k��,4.0,��
2020/12/11,07:40,0.668,0.958,0.610,1.210,0.852,0.384,0.676,0.635,�k��,3.8,��
2020/12/11,07:50,0.669,0.958,0.611,1.215,0.850,0.383,0.673,0.635,���k��,5.0,��
2020/12/11,08:00,0.669,0.959,0.611,1.213,0.850,0.383,0.674,0.636,�k��,4.3,��
2020/12/11,08:10,0.670,0.958,0.610,1.216,0.851,0.380,0.675,0.635,�k��,4.3,��
2020/12/11,08:20,0.669,0.958,0.612,1.213,0.850,0.383,0.676,0.634,�k��,3.1,��
2020/12/11,08:30,0.671,0.958,0.610,1.215,0.851,0.384,0.676,0.635,�k��,3.2,��
2020/12/11,08:40,0.672,0.959,0.610,1.215,0.850,0.383,0.676,0.636,��,2.3,��
2020/12/11,08:50,0.672,0.958,0.612,1.215,0.851,0.384,0.676,0.636,�쐼,1.7,��
2020/12/11,09:00,0.671,0.960,0.612,1.215,0.853,0.383,0.677,0.638,��,1.7,��
2020/12/11,09:10,0.673,0.958,0.612,1.212,0.853,0.383,0.675,0.637,��,2.2,��
2020/12/11,09:20,0.672,0.959,0.611,1.213,0.853,0.384,0.677,0.638,��쐼,2.6,��
2020/12/11,09:30,0.671,0.959,0.612,1.213,0.853,0.384,0.676,0.634,��쓌,2.6,��
2020/12/11,09:40,0.672,0.958,0.613,1.214,0.854,0.384,0.676,0.636,��쓌,2.6,��
2020/12/11,09:50,0.674,0.957,0.611,1.214,0.854,0.383,0.675,0.634,��쓌,4.1,��
2020/12/11,10:00,0.672,0.957,0.612,1.213,0.854,0.383,0.675,0.635,�쓌,3.8,��
2020/12/11,10:10,0.676,0.959,0.612,1.215,0.855,0.386,0.674,0.636,�쓌,4.0,��
2020/12/11,10:20,0.673,0.956,0.613,1.214,0.855,0.385,0.675,0.634,��쓌,4.1,��
2020/12/11,10:30,0.674,0.957,0.611,1.214,0.856,0.384,0.674,0.638,��쓌,4.4,��
2020/12/11,10:40,0.671,-,0.614,1.213,0.855,0.385,0.675,0.636,��쓌,5.0,��
2020/12/11,10:50,0.669,-,0.612,1.214,0.857,0.385,0.675,0.635,��쓌,5.0,��
2020/12/11,11:00,0.670,-,0.613,1.215,0.856,0.383,0.675,0.637,��쓌,5.0,��
2020/12/11,11:10,0.671,-,0.611,1.216,0.857,0.384,0.676,0.636,��쓌,5.3,��
2020/12/11,11:20,0.671,-,0.611,1.215,0.855,0.383,0.675,0.637,��,6.3,��
2020/12/11,11:30,0.672,-,0.612,1.217,0.858,0.383,0.677,0.638,��쓌,6.1,��
2020/12/11,11:40,0.673,-,0.613,1.214,0.857,0.384,0.675,0.638,��쓌,5.2,��
2020/12/11,11:50,0.672,-,0.613,1.215,0.856,0.383,0.674,0.637,��쓌,5.1,��
2020/12/11,12:00,0.675,-,0.614,1.217,0.859,0.384,0.676,0.637,��쓌,5.1,��
2020/12/11,12:10,0.675,0.963,0.615,1.216,0.859,0.382,0.675,0.637,��쓌,4.5,��
2020/12/11,12:20,0.673,0.963,0.614,1.217,0.857,0.384,0.676,0.636,��쓌,4.9,��
2020/12/11,12:30,0.673,0.958,0.615,1.215,0.857,0.384,0.676,0.638,�쓌,4.3,��
2020/12/11,12:40,0.676,0.963,0.615,1.217,0.859,0.385,0.675,0.637,��쓌,3.0,��
2020/12/11,12:50,0.675,0.962,0.617,1.215,0.858,0.385,0.676,0.635,�쓌,3.8,��
2020/12/11,13:00,0.674,0.963,0.614,1.215,0.857,0.385,0.676,0.635,�쓌,3.6,��
2020/12/11,13:10,0.675,0.963,0.615,1.215,0.857,0.385,0.674,0.636,���쓌,3.6,��
2020/12/11,13:20,0.676,0.963,0.614,1.217,0.858,0.385,0.675,0.634,�쓌,3.5,��
2020/12/11,13:30,0.676,0.964,0.615,1.215,0.858,0.384,0.675,0.634,�쓌,3.5,��
2020/12/11,13:40,0.673,0.963,0.614,1.215,0.858,0.384,0.675,0.636,���쓌,3.8,��
2020/12/11,13:50,0.674,0.962,0.616,1.216,0.859,0.387,0.675,0.635,���쓌,2.6,��
2020/12/11,14:00,0.674,0.964,0.614,1.219,0.858,0.386,0.675,0.634,�쓌,2.0,��
2020/12/11,14:10,0.675,0.964,0.614,1.216,0.857,0.386,0.677,0.633,�쓌,2.3,��
2020/12/11,14:20,0.674,0.967,0.615,1.216,0.856,0.385,0.675,0.635,���쓌,2.0,��
2020/12/11,14:30,0.676,0.966,0.613,1.219,0.856,0.385,0.675,0.636,�쓌,1.5,��
2020/12/11,14:40,0.676,0.968,0.615,1.216,0.857,0.385,0.677,0.635,�쓌,2.2,��
2020/12/11,14:50,0.676,0.967,0.615,1.218,0.859,0.386,0.675,0.636,���쓌,1.5,��
2020/12/11,15:00,0.676,0.968,0.614,1.219,0.859,0.385,0.677,0.636,�쓌,2.6,��
2020/12/11,15:10,0.675,0.967,0.614,1.216,0.861,0.386,0.676,0.637,��쓌,3.1,��
2020/12/11,15:20,0.676,0.970,0.615,1.218,0.858,0.385,0.677,0.637,�쓌,1.5,��
2020/12/11,15:30,0.677,0.966,0.615,1.216,0.859,0.385,0.677,0.638,��쓌,2.3,��
2020/12/11,15:40,0.676,0.971,0.615,1.214,0.858,0.384,0.678,0.639,��쓌,1.7,��
2020/12/11,15:50,0.676,0.967,0.615,1.216,0.858,0.385,0.675,0.637,��쓌,3.7,��
2020/12/11,16:00,0.677,0.970,0.616,1.217,0.860,0.384,0.676,0.637,��쓌,4.1,��
2020/12/11,16:10,0.678,0.971,0.614,1.217,0.858,0.384,0.678,0.637,��쓌,3.1,��
2020/12/11,16:20,0.677,0.968,0.615,1.215,0.860,0.385,0.677,0.638,��쓌,3.6,��
2020/12/11,16:30,0.674,0.968,0.614,1.216,0.858,0.385,0.678,0.637,��쓌,3.9,��
2020/12/11,16:40,0.676,0.968,0.615,1.215,0.859,0.385,0.677,0.635,��쓌,4.0,��
2020/12/11,16:50,0.675,0.968,0.614,1.213,0.859,0.384,0.676,0.636,��쓌,3.5,��
2020/12/11,17:00,0.676,0.969,0.615,1.217,0.858,0.384,0.677,0.636,��쓌,4.2,��
2020/12/11,17:10,0.678,0.971,0.615,1.216,0.859,0.386,0.676,0.638,��,4.4,��
2020/12/11,17:20,0.673,0.969,0.614,1.217,0.857,0.386,0.677,0.635,��,4.3,��
2020/12/11,17:30,0.675,0.969,0.615,1.217,0.860,0.386,0.678,0.636,��,4.2,��
2020/12/11,17:40,0.677,0.967,0.616,1.216,0.858,0.384,0.676,0.637,��,4.2,��
2020/12/11,17:50,0.673,0.968,0.615,1.217,0.858,0.384,0.677,0.635,��,3.6,��
2020/12/11,18:00,0.676,0.971,0.614,1.216,0.857,0.385,0.678,0.637,��,4.0,�L
2020/12/11,18:10,0.675,0.971,0.614,1.216,0.860,0.385,0.677,0.638,��쐼,3.9,�L
2020/12/11,18:20,0.677,0.971,0.615,1.217,0.858,0.385,0.676,0.636,��쐼,5.1,�L
2020/12/11,18:30,0.675,0.970,0.616,1.216,0.859,0.384,0.676,0.637,��쐼,4.7,�L
2020/12/11,18:40,0.675,0.969,0.617,1.217,0.859,0.384,0.676,0.637,��,5.4,�L
2020/12/11,18:50,0.676,0.968,0.615,1.219,0.858,0.385,0.678,0.635,��,6.7,��
2020/12/11,19:00,0.674,0.969,0.615,1.217,0.858,0.385,0.678,0.635,��,4.9,��
2020/12/11,19:10,0.674,0.967,0.612,1.216,0.856,0.384,0.676,0.636,��,5.7,��
2020/12/11,19:20,0.676,0.970,0.615,1.216,0.858,0.385,0.678,0.634,��,4.6,��
2020/12/11,19:30,0.675,0.971,0.613,1.216,0.858,0.383,0.678,0.636,��,4.7,��
2020/12/11,19:40,0.675,0.965,0.615,1.215,0.857,0.385,0.675,0.637,��,5.0,��
2020/12/11,19:50,0.674,0.969,0.614,1.216,0.859,0.384,0.678,0.635,��,6.6,��
2020/12/11,20:00,0.676,0.968,0.614,1.216,0.859,0.384,0.676,0.636,��,7.0,��
2020/12/11,20:10,0.675,0.968,0.615,1.215,0.858,0.382,0.675,0.636,��,7.0,��
2020/12/11,20:20,0.673,0.969,0.616,1.215,0.857,0.384,0.676,0.636,��,6.4,��
2020/12/11,20:30,0.674,0.968,0.614,1.217,0.856,0.384,0.676,0.635,��쐼,6.1,��
2020/12/11,20:40,0.676,0.968,0.614,1.217,0.857,0.384,0.676,0.637,��쐼,6.6,��
2020/12/11,20:50,0.676,0.967,0.614,1.216,0.857,0.384,0.676,0.636,��쐼,6.0,��
2020/12/11,21:00,0.675,0.969,0.614,1.216,0.857,0.385,0.678,0.635,��쐼,6.5,��
2020/12/11,21:10,0.677,0.966,0.614,1.216,0.858,0.385,0.676,0.637,��,6.4,��
2020/12/11,21:20,0.676,0.966,0.615,1.216,0.856,0.385,0.676,0.635,��,6.1,��
2020/12/11,21:30,0.676,0.967,0.615,1.216,0.857,0.385,0.676,0.635,��,6.7,��
2020/12/11,21:40,0.674,0.968,0.612,1.217,0.857,0.383,0.676,0.636,��쐼,6.5,��
2020/12/11,21:50,0.675,0.969,0.614,1.218,0.856,0.384,0.677,0.635,��쐼,6.6,��
2020/12/11,22:00,0.675,0.968,0.614,1.216,0.858,0.384,0.677,0.635,��쐼,7.7,��
2020/12/11,22:10,0.676,0.968,0.614,1.216,0.858,0.384,0.677,0.635,��쐼,8.1,��
2020/12/11,22:20,0.675,0.967,0.616,1.216,0.857,0.384,0.676,0.636,��쐼,7.8,��
2020/12/11,22:30,0.674,0.967,0.615,1.214,0.857,0.384,0.676,0.635,��쐼,7.4,��
2020/12/11,22:40,0.677,0.966,0.614,1.215,0.855,0.384,0.677,0.635,�쐼,6.3,��
2020/12/11,22:50,0.675,0.966,0.615,1.215,0.855,0.385,0.675,0.635,��쐼,6.5,��
2020/12/11,23:00,0.674,0.967,0.614,1.216,0.857,0.383,0.676,0.636,��쐼,6.5,��
2020/12/11,23:10,0.675,0.968,0.612,1.216,0.856,0.385,0.677,0.636,�쐼,6.2,��
2020/12/11,23:20,0.675,0.966,0.614,1.215,0.859,0.385,0.677,0.636,�쐼,5.1,��
2020/12/11,23:30,0.675,0.967,0.615,1.214,0.856,0.385,0.677,0.634,�쐼,5.1,��
2020/12/11,23:40,0.674,0.967,0.613,1.215,0.856,0.384,0.677,0.636,�쐼,5.0,��
2020/12/11,23:50,0.674,0.966,0.614,1.214,0.857,0.385,0.674,0.636,�쐼,5.0,��
